This demonstration page uses our WeatherBlox Daily Observations layout. Learn more.

Left ArrowRight Arrow

39.01783, -85.05884

Hourly Observations for October 25, 2018

Temp ( °F °C ) Dew Point ( °F °C ) Humidity (%) Winds ( mph kmh ) Pressure ( in mb ) Visibility ( mi km ) Precip ( " mm )
12:52 am 00:52 Cloudy 43 6.1 32 undefined 65 65 ENE 10 17 30.27 1025 10 16 N/A
1:52 am 01:52 Cloudy 42 5.6 31 -0.6 65 65 ENE 9 15 30.27 1025 10 16 N/A
2:52 am 02:52 Cloudy 42 5.6 32 undefined 68 68 ENE 12 19 30.25 1024 10 16 N/A
3:52 am 03:52 Cloudy 40 4.4 32 undefined 73 73 E 7 11 30.24 1024 10 16 N/A
4:52 am 04:52 Cloudy 40 4.4 32 undefined 73 73 ENE 8 13 30.23 1024 10 16 N/A
5:52 am 05:52 Cloudy 40 4.4 33 0.6 77 77 E 10 17 30.22 1023 10 16 N/A
6:52 am 06:52 Cloudy 39 3.9 33 0.6 79 79 ESE 3 6 30.22 1023 10 16 N/A
7:52 am 07:52 Cloudy 40 4.4 33 0.6 77 77 ENE 7 11 30.21 1023 10 16 N/A
8:52 am 08:52 Cloudy 40 4.4 34 1.1 79 79 E 7 11 30.21 1023 10 16 N/A
9:52 am 09:52 Cloudy 41 5 34 1.1 76 76 E 8 13 30.21 1023 10 16 N/A
10:52 am 10:52 Cloudy 44 6.7 35 1.7 71 71 E 8 13 30.20 1023 10 16 N/A
11:52 am 11:52 Cloudy 47 8.3 36 2.2 66 66 ESE 10 17 30.18 1022 10 16 N/A
12:52 pm 12:52 Mostly Cloudy 52 11.1 36 2.2 55 55 SE 10 17 30.16 1021 10 16 N/A
1:52 pm 13:52 Mostly Cloudy 55 12.8 35 1.7 47 47 ESE 10 17 30.13 1020 10 16 N/A
2:52 pm 14:52 Mostly Cloudy 54 12.2 33 0.6 45 45 E 9 15 30.09 1019 10 16 N/A
3:52 pm 15:52 Mostly Cloudy 54 12.2 35 1.7 49 49 ESE 7 11 30.08 1019 10 16 N/A
4:52 pm 16:52 Mostly Cloudy 54 12.2 34 1.1 47 47 ESE 8 13 30.05 1018 10 16 N/A
5:52 pm 17:52 Mostly Cloudy 53 11.7 36 2.2 52 52 ESE 7 11 30.03 1017 10 16 N/A
6:52 pm 18:52 Mostly Cloudy 51 10.6 36 2.2 56 56 ESE 5 7 30.04 1017 10 16 N/A
7:52 pm 19:52 Cloudy 51 10.6 36 2.2 56 56 E 7 11 30.02 1017 10 16 N/A
8:52 pm 20:52 Cloudy 50 10 36 2.2 59 59 E 8 13 30.01 1016 10 16 N/A
9:52 pm 21:52 Cloudy 49 9.4 37 2.8 64 64 ESE 5 7 30.01 1016 10 16 N/A
10:52 pm 22:52 Cloudy 49 9.4 37 2.8 64 64 ESE 7 11 30.00 1016 10 16 N/A
11:52 pm 23:52 Cloudy 48 8.9 37 2.8 66 66 E 6 9 29.99 1016 10 16 N/A

Powered by AerisWeather